Regional Weather Roundup
Issued by NWS Austin/San Antonio, TX

Home | Current Version | Previous Version | Text Only | Print | Product List | Glossary On
Versions: 1 2 3 4 5 6 7 8 9 10 11 12 13 14 15 16 17 18 19 20 21 22 23 24 25 26 27 28 29 30 31 32 33 34 35 36 37 38 39 40 41 42 43 44 45 46 47 48 49 50
000
ASUS44 KEWX 230910
RWREWX
SOUTH TEXAS REGIONAL WEATHER ROUNDUP
NATIONAL WEATHER SERVICE AUSTIN/SAN ANTONIO TX
400 AM CDT WED AUG 23 2017

NOTE: "FAIR" INDICATED FEW OR NO CLOUDS BELOW 12,000 FEET WITH NO
SIGNIFICANT WEATHER AND/OR OBSTRUCTIONS TO VISIBILITY.

* - THESE STATIONS ARE NOT NWS OR FAA STATIONS...AND ARE NOT SUBJECT
    TO NWS AND FAA QUALITY CONTROL.

TXZ171-172-183>190-231000-
TEXAS HILL COUNTRY AND EDWARDS PLATEAU

CITY           SKY/WX    TMP DP  RH WIND       PRES   REMARKS
JUNCTION       PTCLDY    78  65  63 W5        30.06R
*LLANO         PTCLDY    75  66  73 CALM      30.06R
BURNET         PTCLDY    78  68  71 S3        30.04S
*HORSESHOE BAY PTCLDY    77  68  72 CALM      30.01F
*KERRVILLE     CLEAR     74  69  85 SE3       30.05F
*FREDERICKSBRG PTCLDY    70  64  82 CALM      30.05F
*ROCKSPRINGS   NOT AVBL
*BOERNE STAGE  CLEAR     70  64  83 CALM      30.06S
*CASTROVILLE   CLEAR     74  65  73 CALM      30.03S
HONDO          CLEAR     73  68  84 NE3       30.03R
*UVALDE        CLEAR     74  67  78 CALM      30.03S
DEL RIO        CLEAR     81  67  62 E8        29.99S
LAUGHLIN AFB   CLEAR     79  67  65 E7        30.00S
CARRIZO SPRGS  MOCLDY    79  68  69 CALM      29.97S
*EAGLE PASS    SUNNY     81  66  61 SE6       29.98F
$$

TXZ173-191>194-202-209-217>225-228-231000-
CENTRAL AND SOUTH CENTRAL TEXAS

CITY           SKY/WX    TMP DP  RH WIND       PRES   REMARKS
GEORGETOWN     CLEAR     79  70  74 SW7       30.02S
AUSTIN/BERGSTM CLEAR     75  71  87 S3        29.99F
AUSTIN/MABRY   CLEAR     79  71  76 S3        30.01F
*AUSTIN/EXEC   CLEAR     75  72  88 CALM      30.00F
*LAGO VISTA    CLEAR     79  69  71 S6        30.03S
SAN MARCOS     CLEAR     75  71  87 SW5       30.01F
NEW BRAUNFELS  CLEAR     74  70  87 SW5       29.99F
RANDOLPH AFB   CLEAR     73  72  99 CALM      30.01F
PT SAN ANTONIO CLEAR     74  70  86 CALM      30.00S
SAN ANTONIO    CLEAR     78  71  79 S5        30.02S
STINSON FIELD  CLEAR     76  71  85 CALM      29.99S
*LA GRANGE     CLEAR     77  73  90 CALM      29.97S
*GIDDINGS      CLEAR     75  71  87 CALM      30.00F
*GONZALES      CLEAR     74  74  99 CALM      30.00R
$$

TXZ163>164-176>182-195>201-210>213-226-227-235-231000-
SOUTHEAST TEXAS

CITY           SKY/WX    TMP DP  RH WIND       PRES   REMARKS
COLLEGE STN    CLEAR     77  71  82 S5        29.98F
*BRYAN         CLEAR     76  71  84 CALM      30.00S
*CALDWELL      NOT AVBL
*CROCKETT      CLEAR     73  72  94 CALM      30.02S
*BRENHAM       CLEAR     76  72  86 CALM      30.00S
HUNTSVILLE     CLEAR     78  70  76 S3        29.99F
CONROE         CLEAR     74  72  93 CALM      29.98F
HOUSTON BUSH   PTCLDY    77  74  90 CALM      29.98F
HOUSTON HOBBY  PTCLDY    80  74  81 CALM      29.97F
*HOUSTON SW AP CLEAR     73  72  96 CALM      29.98F
PEARLAND       CLEAR     79  73  82 CALM      29.99S
HOUSTON HOOKS  CLEAR     76  73  91 CALM      29.98F
ELLINGTON FLD  PTCLDY    81  73  78 CALM      29.99F
SUGAR LAND     CLEAR     76  74  93 CALM      29.97F
*HOUSTON EXEC  CLEAR     73  72  94 CALM      29.99F
*CLEVELAND MUN CLEAR     74  73  96 CALM      29.99F FOG
*WHARTON       CLEAR     72  70  92 CALM      29.99S
*COLUMBUS      FAIR      72  70  93 CALM      29.99F
*EAGLE LAKE    SUNNY     75  75  98 CALM      29.98F
$$

TXZ214>216-236>238-231000-
THE UPPER TEXAS COAST

CITY           SKY/WX    TMP DP  RH WIND       PRES   REMARKS
*ORANGE        CLOUDY    76  76 100 CALM      29.99S FOG
PORT ARTHUR    CLOUDY    76  75  97 CALM      29.96F
GALVESTON      CLOUDY    83  77  82 CALM      29.97F HX  92
ANGLETON       CLEAR     76  75  97 CALM      29.98S
*BAY CITY      CLEAR     74  73  97 CALM      29.98S
PALACIOS       CLEAR     74  73  97 CALM      29.97S
$$

TXZ229>234-239>247-231000-
TEXAS COASTAL BEND AND RIO GRANDE PLAINS

CITY           SKY/WX    TMP DP  RH WIND       PRES   REMARKS
VICTORIA       CLEAR     74  72  93 CALM      29.98S
*BEEVILLE      CLEAR    N/A N/A N/A CALM      29.98S
ROCKPORT       PTCLDY    80  75  84 SW3       29.96S
*PORT ARANSAS  PTCLDY    82  76  82 S3        29.96F
*PORT LAVACA   CLEAR     74  71  88 CALM      29.97F
*INGLESIDE     CLEAR     78  75  88 MISG      29.97S
CORPUS CHRISTI PTCLDY    76  75  97 CALM      29.97S
CORPUS NAS     PTCLDY    82  77  84 S3        29.96S HX  90
*ROBSTOWN      PTCLDY    77  72  85 CALM      29.97S
ALICE          CLEAR     72  70  93 SE3       29.96F
KINGSVILLE NAS CLEAR     75  75 100 N3        29.96F
COTULLA        CLEAR     77  69  76 SE5       29.98F
*FAITH RANCH   CLEAR     81  68  65 SE7       29.98S
LAREDO         CLEAR     80  72  76 SE7       29.97F
$$

TXZ248>255-231000-
DEEP SOUTH TEXAS

CITY           SKY/WX    TMP DP  RH WIND       PRES   REMARKS
BROWNSVILLE    CLEAR     77  77 100 CALM      29.95F
PORT ISABEL    CLEAR     77  75  93 CALM      29.94F
*SOUTH PADRE   NOT AVBL
HARLINGEN      CLEAR     75  73  93 NW5       29.94F
*HEBBRONVILLE  PTCLDY    73  70  90 CALM      29.99F
MCALLEN        PTCLDY    80  73  79 CALM      29.96F
*WESLACO       CLEAR     77  73  87 CALM      29.95S
FALFURRIAS     CLEAR     74  72  93 CALM      29.96F
EDINBURG       CLEAR     77  72  84 CALM      29.96F
*ZAPATA        CLEAR     78  70  75 CALM      29.96F
$$

TXZ213>215-236>238-242>244-246-247-251-254-255-231000-
CMAN STATIONS

STATION/POSITION TIME  TEMP    WIND        PRES    WAVE
                       AIR SEA DIR/SP/G            HT/PER
                 (UTC) (F)     (DEG/KT/KT) (MB)    (FT/S)
SABINE PASS      0842   81 89   40/  2/  3 1016.4
SEA RIM ST PARK  0800   84     140/  3/  4 1015.6
NORTH JETTY/GLS  0842      88  180/  5/  6 1014.4
EAGLE POINT      0842   80 89  300/  4/  5 1015.1
MORGANS POINT    0842   82 87  270/  3/  5 1015.0
MISSION/ARANSAS  0800          150/  5     1015.0
PORT O`CONNOR    0836   84     150/  5/  7 1014.4
PORT ARANSAS     0800   83 85  140/  7/  8 1014.9
MALAQUITE BEACH  0836   83 87  130/  4/  5 1014.1
BAFFIN BAY       0836   83 87              1014.7
PORT ISABEL      0836   82 85              1014.2
$$




USA.gov is the U.S. government's official web portal to all federal, state and local government web resources and services.